TGL46T LFQQ-LSGG

Flight info

Callsign TGL46T
Flight time N/A
Altitude 19000
Route CMB B3 VATRI T11 SOMDA A6 DJL
Aircraft A320/M-SDE3FGHIRWY/LB1

Departure

Time N/A
Airport Lille Airport (LFQQ)

Arrival

Time 2026-05-03 20:59
Airport Geneva International Airport (LSGG)
Time Latitude Longitude Altitude Speed Heading
2026-05-03 20:15 49.04539 4.05158 18980 ft 358 kts 182°
2026-05-03 20:15 49.02051 4.05231 18982 ft 358 kts 182°
2026-05-03 20:15 48.99561 4.05300 18983 ft 358 kts 182°
2026-05-03 20:15 48.97075 4.05365 18979 ft 358 kts 182°
2026-05-03 20:16 48.94584 4.05429 18981 ft 358 kts 182°
2026-05-03 20:16 48.92095 4.05495 18983 ft 358 kts 182°
2026-05-03 20:16 48.89617 4.05560 18984 ft 358 kts 182°
2026-05-03 20:16 48.87121 4.05627 18985 ft 358 kts 182°
2026-05-03 20:17 48.84630 4.05694 18984 ft 358 kts 182°
2026-05-03 20:17 48.82146 4.05760 18985 ft 358 kts 182°
2026-05-03 20:17 48.79652 4.05916 18988 ft 360 kts 176°
2026-05-03 20:17 48.77201 4.06696 18988 ft 363 kts 168°
2026-05-03 20:18 48.74759 4.07715 18990 ft 363 kts 168°
2026-05-03 20:18 48.72325 4.08725 18989 ft 363 kts 168°
2026-05-03 20:18 48.69882 4.09734 18990 ft 363 kts 168°
2026-05-03 20:18 48.67444 4.10737 18990 ft 363 kts 168°
2026-05-03 20:19 48.64996 4.11738 18992 ft 363 kts 169°
2026-05-03 20:19 48.62558 4.12732 18992 ft 363 kts 169°
2026-05-03 20:19 48.60115 4.13726 18992 ft 363 kts 169°
2026-05-03 20:19 48.57676 4.14720 18983 ft 363 kts 169°
2026-05-03 20:20 48.55233 4.15717 18984 ft 363 kts 169°
2026-05-03 20:20 48.52793 4.16713 18987 ft 364 kts 169°
2026-05-03 20:20 48.50352 4.17706 18991 ft 364 kts 169°
2026-05-03 20:20 48.47914 4.18699 18991 ft 364 kts 169°
2026-05-03 20:21 48.45466 4.19694 18992 ft 364 kts 169°
2026-05-03 20:21 48.43020 4.20689 18993 ft 364 kts 169°
2026-05-03 20:21 48.40577 4.21684 18993 ft 364 kts 169°
2026-05-03 20:21 48.38131 4.22679 18992 ft 364 kts 169°
2026-05-03 20:22 48.35685 4.23674 18980 ft 364 kts 168°
2026-05-03 20:22 48.33284 4.24890 18982 ft 367 kts 160°
2026-05-03 20:22 48.31000 4.26656 18983 ft 369 kts 156°
2026-05-03 20:22 48.28764 4.28453 18981 ft 370 kts 156°
2026-05-03 20:23 48.26504 4.30265 18984 ft 369 kts 156°
2026-05-03 20:23 48.24236 4.32079 18991 ft 369 kts 156°
2026-05-03 20:23 48.21968 4.33886 18997 ft 368 kts 156°
2026-05-03 20:23 48.19706 4.35684 18999 ft 368 kts 156°
2026-05-03 20:24 48.17445 4.37483 19000 ft 368 kts 156°
2026-05-03 20:24 48.15184 4.39281 19000 ft 368 kts 156°
2026-05-03 20:24 48.12922 4.41079 18992 ft 368 kts 156°
2026-05-03 20:24 48.10672 4.42891 18999 ft 367 kts 155°
2026-05-03 20:25 48.08429 4.44718 19005 ft 367 kts 155°
2026-05-03 20:25 48.06194 4.46548 19006 ft 366 kts 155°
2026-05-03 20:25 48.03959 4.48376 19006 ft 366 kts 155°
2026-05-03 20:25 48.01726 4.50197 19005 ft 366 kts 155°
2026-05-03 20:26 47.99490 4.52014 19007 ft 365 kts 155°
2026-05-03 20:26 47.97256 4.53825 19007 ft 365 kts 155°
2026-05-03 20:26 47.95022 4.55630 19006 ft 365 kts 155°
2026-05-03 20:26 47.92786 4.57430 19005 ft 365 kts 155°
2026-05-03 20:27 47.90559 4.59221 19002 ft 365 kts 155°
2026-05-03 20:27 47.88321 4.61020 19005 ft 364 kts 155°
2026-05-03 20:27 47.86092 4.62813 19009 ft 364 kts 155°
2026-05-03 20:27 47.83871 4.64603 18997 ft 363 kts 155°
2026-05-03 20:28 47.81647 4.66394 18995 ft 363 kts 155°
2026-05-03 20:28 47.79425 4.68184 18994 ft 363 kts 155°
2026-05-03 20:28 47.77201 4.69973 18997 ft 363 kts 155°
2026-05-03 20:28 47.74973 4.71758 19002 ft 364 kts 155°
2026-05-03 20:29 47.72746 4.73536 19001 ft 364 kts 155°
2026-05-03 20:29 47.70517 4.75315 19001 ft 364 kts 155°
2026-05-03 20:29 47.68287 4.77095 18995 ft 364 kts 155°
2026-05-03 20:29 47.66058 4.78875 19002 ft 364 kts 155°
2026-05-03 20:30 47.63828 4.80658 19006 ft 364 kts 155°
2026-05-03 20:30 47.61596 4.82441 19007 ft 364 kts 155°
2026-05-03 20:30 47.59365 4.84219 19011 ft 364 kts 155°
2026-05-03 20:30 47.57133 4.85993 19017 ft 364 kts 155°
2026-05-03 20:31 47.54897 4.87767 19019 ft 364 kts 155°
2026-05-03 20:31 47.52664 4.89537 19024 ft 364 kts 155°
2026-05-03 20:31 47.50431 4.91307 19028 ft 364 kts 155°
2026-05-03 20:31 47.48196 4.93077 19021 ft 364 kts 155°
2026-05-03 20:32 47.45963 4.94842 19027 ft 364 kts 155°
2026-05-03 20:32 47.43731 4.96605 19031 ft 364 kts 155°
2026-05-03 20:32 47.41495 4.98370 19034 ft 364 kts 155°
2026-05-03 20:32 47.39260 5.00131 19017 ft 364 kts 155°
2026-05-03 20:33 47.37021 5.01895 19011 ft 365 kts 155°
2026-05-03 20:33 47.34784 5.03661 19013 ft 366 kts 155°
2026-05-03 20:33 47.32543 5.05429 19012 ft 367 kts 155°
2026-05-03 20:33 47.30309 5.07184 19014 ft 367 kts 155°
2026-05-03 20:34 47.28054 5.08953 19013 ft 368 kts 155°
2026-05-03 20:34 47.25882 5.10956 19006 ft 370 kts 148°
2026-05-03 20:34 47.23786 5.13145 19009 ft 370 kts 148°
2026-05-03 20:34 47.21674 5.15348 19010 ft 370 kts 148°
2026-05-03 20:35 47.19577 5.17525 19014 ft 370 kts 148°
2026-05-03 20:35 47.17438 5.19740 19013 ft 370 kts 148°
2026-05-03 20:35 47.15365 5.21885 19013 ft 371 kts 148°
2026-05-03 20:35 47.13259 5.24066 19013 ft 371 kts 148°
2026-05-03 20:36 47.11147 5.26254 19011 ft 371 kts 148°
2026-05-03 20:36 47.09016 5.28458 19021 ft 370 kts 148°
2026-05-03 20:36 47.06931 5.30612 19024 ft 370 kts 148°
2026-05-03 20:36 47.04820 5.32789 19020 ft 370 kts 148°
2026-05-03 20:37 47.02712 5.34961 19009 ft 371 kts 148°
2026-05-03 20:37 47.00599 5.37136 19009 ft 371 kts 148°
2026-05-03 20:37 46.98482 5.39314 19007 ft 372 kts 148°
2026-05-03 20:37 46.96361 5.41489 19012 ft 372 kts 148°
2026-05-03 20:38 46.94236 5.43666 19016 ft 373 kts 148°
2026-05-03 20:38 46.92113 5.45842 19017 ft 373 kts 148°
2026-05-03 20:38 46.89985 5.48022 19018 ft 373 kts 148°
2026-05-03 20:38 46.87859 5.50196 19024 ft 373 kts 148°
2026-05-03 20:39 46.85729 5.52372 19025 ft 373 kts 148°
2026-05-03 20:39 46.83601 5.54545 19024 ft 373 kts 148°
2026-05-03 20:39 46.81474 5.56716 19031 ft 373 kts 148°
2026-05-03 20:39 46.79344 5.58884 19033 ft 373 kts 148°
2026-05-03 20:40 46.77217 5.61044 19033 ft 373 kts 148°
2026-05-03 20:40 46.75086 5.63209 19032 ft 373 kts 148°
2026-05-03 20:40 46.72958 5.65370 19031 ft 373 kts 148°
2026-05-03 20:40 46.70830 5.67529 19031 ft 373 kts 148°
2026-05-03 20:41 46.68706 5.69685 19033 ft 373 kts 147°
2026-05-03 20:41 46.66576 5.71849 19029 ft 373 kts 147°
2026-05-03 20:41 46.64444 5.74010 19028 ft 373 kts 147°
2026-05-03 20:41 46.62314 5.76163 19032 ft 373 kts 147°
2026-05-03 20:42 46.60173 5.78319 19026 ft 373 kts 148°
2026-05-03 20:42 46.58066 5.80441 18805 ft 364 kts 147°
2026-05-03 20:42 46.56010 5.82515 18581 ft 356 kts 147°
2026-05-03 20:42 46.53989 5.84552 18347 ft 352 kts 147°
2026-05-03 20:43 46.51983 5.86573 18079 ft 350 kts 147°
2026-05-03 20:43 46.50013 5.88558 17814 ft 349 kts 147°
2026-05-03 20:43 46.48000 5.90585 17545 ft 347 kts 147°
2026-05-03 20:43 46.46057 5.92537 17166 ft 343 kts 147°
2026-05-03 20:44 46.44098 5.94499 16695 ft 342 kts 147°
2026-05-03 20:44 46.42139 5.96458 16203 ft 342 kts 147°
2026-05-03 20:44 46.40182 5.98413 15745 ft 341 kts 147°
2026-05-03 20:44 46.38306 6.00508 15331 ft 341 kts 135°
2026-05-03 20:45 46.37080 6.03376 15196 ft 334 kts 111°
2026-05-03 20:45 46.36774 6.06659 15074 ft 329 kts 86°
2026-05-03 20:45 46.37414 6.09806 14830 ft 327 kts 61°
2026-05-03 20:45 46.38843 6.12361 14478 ft 328 kts 46°
2026-05-03 20:46 46.40451 6.14706 14115 ft 328 kts 46°
2026-05-03 20:46 46.42061 6.17043 13721 ft 328 kts 46°
2026-05-03 20:46 46.43671 6.19385 13321 ft 328 kts 46°
2026-05-03 20:46 46.45273 6.21727 12945 ft 327 kts 46°
2026-05-03 20:47 46.46867 6.24074 12589 ft 325 kts 47°
2026-05-03 20:47 46.48443 6.26409 12229 ft 324 kts 47°
2026-05-03 20:47 46.49986 6.28685 12070 ft 306 kts 47°
2026-05-03 20:47 46.51437 6.30823 11857 ft 291 kts 47°
2026-05-03 20:48 46.52839 6.32906 11416 ft 286 kts 47°
2026-05-03 20:48 46.54217 6.34972 10920 ft 284 kts 48°
2026-05-03 20:48 46.55587 6.37039 10417 ft 283 kts 48°
2026-05-03 20:48 46.56947 6.39103 9913 ft 282 kts 49°
2026-05-03 20:49 46.58036 6.41343 9677 ft 265 kts 71°
2026-05-03 20:49 46.58472 6.43842 9448 ft 251 kts 93°
2026-05-03 20:49 46.58267 6.46302 9140 ft 241 kts 114°
2026-05-03 20:49 46.57506 6.48403 8806 ft 233 kts 132°
2026-05-03 20:50 46.56332 6.49971 8484 ft 228 kts 150°
2026-05-03 20:50 46.54899 6.50883 8147 ft 225 kts 168°
2026-05-03 20:50 46.53352 6.51086 7807 ft 224 kts 186°
2026-05-03 20:50 46.51847 6.50552 7474 ft 224 kts 204°
2026-05-03 20:51 46.50539 6.49337 7148 ft 225 kts 220°
2026-05-03 20:51 46.49277 6.48007 6808 ft 225 kts 210°
2026-05-03 20:51 46.48025 6.46649 6481 ft 225 kts 221°
2026-05-03 20:51 46.46906 6.45059 6158 ft 225 kts 225°
2026-05-03 20:52 46.45824 6.43443 5944 ft 218 kts 224°
2026-05-03 20:52 46.44786 6.41895 5727 ft 212 kts 224°
2026-05-03 20:52 46.43758 6.40368 5417 ft 211 kts 224°
2026-05-03 20:52 46.42738 6.38854 5124 ft 210 kts 224°
2026-05-03 20:53 46.41720 6.37343 4805 ft 210 kts 225°
2026-05-03 20:53 46.40717 6.35854 4519 ft 208 kts 224°
2026-05-03 20:53 46.39714 6.34368 4228 ft 206 kts 224°
2026-05-03 20:53 46.38712 6.32884 4017 ft 207 kts 225°
2026-05-03 20:54 46.38037 6.31884 3998 ft 201 kts 225°
2026-05-03 20:54 46.35907 6.28732 4001 ft 183 kts 225°
2026-05-03 20:54 46.35021 6.27423 4007 ft 182 kts 225°
2026-05-03 20:55 46.34149 6.26133 3914 ft 176 kts 225°
2026-05-03 20:55 46.33315 6.24902 3703 ft 166 kts 225°
2026-05-03 20:55 46.32782 6.24115 3582 ft 158 kts 225°
2026-05-03 20:55 46.32030 6.23005 3372 ft 151 kts 225°
2026-05-03 20:56 46.31305 6.21936 3177 ft 148 kts 225°
2026-05-03 20:56 46.30588 6.20878 2981 ft 147 kts 224°
2026-05-03 20:56 46.29883 6.19840 2793 ft 146 kts 225°
2026-05-03 20:56 46.29163 6.18779 2595 ft 146 kts 225°
2026-05-03 20:57 46.28455 6.17735 2396 ft 145 kts 226°
2026-05-03 20:57 46.27744 6.16689 2187 ft 146 kts 227°
2026-05-03 20:57 46.27034 6.15643 2004 ft 146 kts 227°
2026-05-03 20:57 46.26322 6.14611 1802 ft 145 kts 226°
2026-05-03 20:58 46.25627 6.13596 1596 ft 144 kts 227°
2026-05-03 20:58 46.24933 6.12560 1435 ft 144 kts 225°
2026-05-03 20:58 46.24295 6.11620 1398 ft 109 kts 226°
2026-05-03 20:58 46.23886 6.11017 1407 ft 59 kts 226°
2026-05-03 20:59 46.23658 6.10737 1397 ft 34 kts 195°
2026-05-03 20:59 46.23524 6.10697 1394 ft 0 kts 190°
2026-05-03 21:00 46.23518 6.10696 1394 ft 0 kts 190°
2026-05-03 21:00 46.23506 6.10693 1404 ft 5 kts 189°
2026-05-03 21:00 46.23484 6.10714 1402 ft 2 kts 120°
2026-05-03 21:00 46.23454 6.10770 1396 ft 10 kts 133°
2026-05-03 21:01 46.23427 6.10809 1397 ft 3 kts 136°
2026-05-03 21:01 46.23425 6.10811 1398 ft 0 kts 136°